QPF
0.00 0.00 0.00 0.00 0.00 0.00 0.00 0.00 0.00 0.00 0.00 0.00 0.00 0.00 0.00 0.00 0.00 0.00 0.00 0.00 0.00 0.00 0.00 0.01 0.01 0.01 0.01 0.01 0.01 0.01 0.01 0.01 0.00 0.00 0.01 0.01 0.01 0.01 0.01 0.00 0.00 0.00 0.01 0.01 0.01 0.01 0.00 0.00 0.00
0.00 0.00 0.00 0.00 0.00 0.00 0.00 0.00 0.00 0.00 0.00 0.00 0.00 0.00 0.00 0.00 0.00 0.00 0.00 0.00 0.00 0.00 0.00 0.00 0.01 0.01 0.01 0.01 0.01 0.01 0.01 0.01 0.00 0.00 0.00 0.01 0.01 0.01 0.00 0.00 0.00 0.00 0.00 0.00 0.00 0.00 0.00 0.00 0.00
0.00 0.00 0.00 0.00 0.00 0.00 0.00 0.00 0.00 0.00 0.00 0.00 0.00 0.00 0.00 0.00 0.00 0.00 0.00 0.00 0.00 0.00 0.00 0.00 0.01 0.01 0.01 0.01 0.01 0.01 0.01 0.00 0.00 0.00 0.00 0.00 0.00 0.00 0.00 0.00 0.00 0.00 0.00 0.00 0.00 0.00 0.00 0.00 0.00
0.00 0.00 0.00 0.00 0.00 0.00 0.00 0.00 0.00 0.00 0.00 0.00 0.00 0.00 0.00 0.00 0.00 0.00 0.00 0.00 0.00 0.00 0.00 0.01 0.01 0.01 0.01 0.01 0.01 0.01 0.00 0.00 0.00 0.00 0.00 0.00 0.00 0.00 0.00 0.00 0.00 0.00 0.00 0.00 0.00 0.00 0.00 0.00 0.00
0.00 0.00 0.00 0.00 0.00 0.00 0.00 0.00 0.00 0.00 0.00 0.00 0.00 0.00 0.00 0.00 0.00 0.00 0.00 0.00 0.00 0.00 0.00 0.01 0.02 0.02 0.01 0.01 0.01 0.01 0.00 0.00 0.00 0.00 0.00 0.00 0.00 0.00 0.00 0.00 0.00 0.00 0.00 0.00 0.00 0.00 0.00 0.00 0.00
0.00 0.00 0.00 0.00 0.00 0.00 0.00 0.00 0.00 0.00 0.00 0.00 0.00 0.00 0.00 0.00 0.00 0.00 0.00 0.00 0.00 0.00 0.00 0.01 0.02 0.02 0.02 0.01 0.01 0.01 0.01 0.00 0.00 0.00 0.00 0.00 0.00 0.00 0.00 0.00 0.00 0.00 0.00 0.00 0.00 0.00 0.00 0.00 0.00
0.00 0.00 0.00 0.00 0.00 0.00 0.00 0.00 0.00 0.00 0.00 0.00 0.00 0.00 0.00 0.00 0.00 0.00 0.00 0.00 0.00 0.00 0.00 0.01 0.02 0.02 0.02 0.01 0.01 0.01 0.01 0.01 0.00 0.00 0.00 0.00 0.00 0.00 0.00 0.00 0.00 0.00 0.00 0.00 0.00 0.00 0.00 0.00 0.00
0.00 0.00 0.00 0.00 0.00 0.00 0.00 0.00 0.00 0.00 0.00 0.00 0.00 0.00 0.00 0.00 0.00 0.00 0.00 0.00 0.00 0.00 0.00 0.01 0.02 0.02 0.02 0.01 0.01 0.01 0.01 0.01 0.00 0.00 0.00 0.00 0.00 0.00 0.00 0.00 0.00 0.00 0.00 0.00 0.00 0.00 0.00 0.00 0.00
0.00 0.00 0.00 0.00 0.00 0.00 0.00 0.00 0.00 0.00 0.00 0.00 0.00 0.00 0.00 0.00 0.00 0.00 0.00 0.00 0.00 0.00 0.00 0.01 0.01 0.01 0.01 0.01 0.01 0.01 0.01 0.01 0.01 0.00 0.00 0.00 0.00 0.00 0.00 0.00 0.00 0.00 0.00 0.00 0.00 0.01 0.00 0.00 0.00
0.00 0.00 0.00 0.00 0.00 0.00 0.00 0.00 0.00 0.00 0.00 0.00 0.00 0.00 0.00 0.00 0.00 0.00 0.00 0.00 0.00 0.00 0.00 0.00 0.01 0.01 0.01 0.01 0.01 0.02 0.01 0.01 0.00 0.00 0.00 0.00 0.00 0.00 0.00 0.00 0.00 0.00 0.00 0.00 0.00 0.00 0.00 0.00 0.00
0.00 0.00 0.00 0.00 0.00 0.00 0.00 0.00 0.00 0.00 0.00 0.00 0.00 0.00 0.00 0.00 0.00 0.00 0.00 0.00 0.00 0.00 0.00 0.00 0.00 0.00 0.01 0.01 0.01 0.01 0.01 0.01 0.00 0.00 0.00 0.00 0.00 0.00 0.00 0.00 0.00 0.00 0.00 0.00 0.00 0.00 0.00 0.00 0.00
0.00 0.00 0.00 0.00 0.00 0.00 0.00 0.00 0.00 0.00 0.00 0.00 0.00 0.00 0.00 0.00 0.00 0.00 0.00 0.00 0.00 0.00 0.00 0.00 0.00 0.00 0.01 0.01 0.01 0.01 0.01 0.01 0.00 0.00 0.00 0.00 0.00 0.00 0.00 0.00 0.00 0.00 0.00 0.00 0.00 0.00 0.00 0.00 0.00
0.00 0.00 0.00 0.00 0.00 0.00 0.00 0.00 0.00 0.00 0.00 0.00 0.00 0.00 0.00 0.00 0.00 0.00 0.00 0.00 0.00 0.00 0.00 0.00 0.00 0.00 0.00 0.01 0.00 0.00 0.00 0.00 0.00 0.00 0.00 0.00 0.00 0.00 0.00 0.00 0.00 0.00 0.00 0.00 0.00 0.00 0.00 0.00 0.00
0.00 0.00 0.00 0.00 0.00 0.00 0.00 0.00 0.00 0.00 0.00 0.00 0.00 0.00 0.00 0.00 0.00 0.00 0.00 0.00 0.00 0.00 0.00 0.00 0.00 0.00 0.00 0.00 0.00 0.00 0.00 0.00 0.00 0.00 0.00 0.00 0.00 0.00 0.00 0.00 0.00 0.00 0.00 0.00 0.00 0.00 0.00 0.00 0.00
0.00 0.00 0.00 0.00 0.00 0.00 0.00 0.00 0.00 0.00 0.00 0.00 0.00 0.00 0.00 0.00 0.00 0.00 0.00 0.00 0.00 0.00 0.00 0.00 0.00 0.00 0.00 0.00 0.00 0.00 0.00 0.00 0.00 0.00 0.00 0.00 0.00 0.00 0.00 0.00 0.00 0.00 0.00 0.00 0.00 0.00 0.00 0.00 0.00
0.01 0.01 0.01 0.00 0.00 0.00 0.00 0.00 0.00 0.00 0.00 0.00 0.00 0.00 0.00 0.00 0.00 0.00 0.00 0.00 0.00 0.00 0.00 0.00 0.00 0.00 0.00 0.00 0.00 0.00 0.00 0.00 0.00 0.00 0.00 0.00 0.00 0.00 0.00 0.00 0.00 0.00 0.00 0.00 0.00 0.00 0.00 0.00 0.00
0.02 0.01 0.01 0.00 0.00 0.00 0.00 0.00 0.00 0.00 0.00 0.00 0.00 0.00 0.00 0.00 0.00 0.00 0.00 0.00 0.00 0.00 0.00 0.00 0.00 0.00 0.00 0.00 0.00 0.00 0.00 0.00 0.00 0.00 0.00 0.00 0.00 0.00 0.00 0.00 0.00 0.00 0.00 0.00 0.00 0.00 0.00 0.00 0.00
0.02 0.01 0.00 0.00 0.00 0.00 0.00 0.00 0.00 0.00 0.00 0.00 0.00 0.00 0.00 0.00 0.00 0.00 0.00 0.00 0.00 0.00 0.00 0.00 0.00 0.00 0.00 0.00 0.00 0.01 0.00 0.00 0.00 0.00 0.00 0.00 0.00 0.00 0.00 0.00 0.00 0.00 0.00 0.00 0.00 0.00 0.00 0.00 0.00
0.01 0.00 0.00 0.00 0.00 0.00 0.00 0.00 0.00 0.00 0.00 0.00 0.00 0.00 0.00 0.00 0.00 0.00 0.00 0.00 0.00 0.00 0.00 0.00 0.00 0.00 0.00 0.00 0.00 0.01 0.00 0.00 0.00 0.00 0.00 0.00 0.00 0.00 0.00 0.00 0.00 0.00 0.00 0.01 0.00 0.00 0.00 0.00 0.00
0.02 0.02 0.01 0.00 0.00 0.00 0.00 0.00 0.00 0.00 0.00 0.00 0.00 0.00 0.00 0.00 0.00 0.00 0.00 0.00 0.00 0.00 0.00 0.00 0.00 0.00 0.00 0.00 0.00 0.00 0.00 0.00 0.00 0.00 0.00 0.00 0.00 0.00 0.00 0.00 0.00 0.01 0.01 0.00 0.00 0.00 0.00 0.00 0.00
0.04 0.02 0.01 0.01 0.00 0.00 0.00 0.00 0.00 0.00 0.00 0.00 0.00 0.00 0.00 0.00 0.00 0.00 0.00 0.00 0.00 0.00 0.00 0.00 0.00 0.00 0.00 0.00 0.00 0.00 0.00 0.00 0.00 0.00 0.00 0.00 0.00 0.00 0.01 0.01 0.01 0.01 0.00 0.00 0.00 0.00 0.00 0.00 0.00
0.05 0.02 0.02 0.02 0.01 0.01 0.00 0.00 0.00 0.00 0.00 0.00 0.00 0.00 0.00 0.00 0.00 0.00 0.00 0.00 0.00 0.00 0.00 0.00 0.00 0.00 0.00 0.00 0.00 0.00 0.00 0.00 0.00 0.00 0.00 0.00 0.00 0.01 0.01 0.01 0.01 0.01 0.01 0.01 0.01 0.01 0.00 0.00 0.00
0.03 0.02 0.03 0.03 0.04 0.03 0.01 0.01 0.00 0.00 0.00 0.00 0.00 0.00 0.00 0.00 0.00 0.00 0.00 0.00 0.00 0.00 0.00 0.00 0.00 0.00 0.00 0.00 0.00 0.00 0.00 0.00 0.00 0.00 0.00 0.00 0.00 0.00 0.01 0.01 0.01 0.01 0.01 0.01 0.01 0.01 0.01 0.01 0.01
0.03 0.05 0.08 0.09 0.11 0.11 0.03 0.01 0.00 0.00 0.00 0.00 0.00 0.00 0.00 0.00 0.00 0.00 0.00 0.00 0.00 0.00 0.00 0.00 0.00 0.00 0.00 0.00 0.00 0.00 0.00 0.00 0.00 0.00 0.00 0.00 0.00 0.00 0.00 0.00 0.00 0.00 0.01 0.01 0.01 0.01 0.01 0.01 0.01
0.09 0.14 0.23 0.25 0.25 0.14 0.02 0.01 0.00 0.00 0.00 0.00 0.00 0.00 0.00 0.00 0.00 0.00 0.00 0.00 0.00 0.00 0.00 0.00 0.00 0.00 0.00 0.00 0.00 0.00 0.00 0.00 0.00 0.00 0.00 0.00 0.00 0.00 0.00 0.00 0.00 0.00 0.00 0.01 0.01 0.01 0.00 0.00 0.00
0.11 0.13 0.18 0.16 0.10 0.03 0.00 0.00 0.00 0.00 0.00 0.00 0.00 0.00 0.00 0.00 0.00 0.00 0.00 0.00 0.00 0.00 0.00 0.00 0.00 0.00 0.00 0.00 0.00 0.00 0.00 0.00 0.00 0.00 0.01 0.00 0.00 0.00 0.00 0.00 0.00 0.01 0.01 0.01 0.01 0.01 0.01 0.01 0.00
0.08 0.09 0.08 0.08 0.06 0.02 0.01 0.00 0.00 0.00 0.00 0.00 0.00 0.00 0.00 0.00 0.00 0.00 0.00 0.00 0.00 0.00 0.00 0.00 0.00 0.00 0.00 0.00 0.00 0.00 0.00 0.00 0.00 0.00 0.01 0.01 0.01 0.00 0.00 0.00 0.01 0.01 0.01 0.01 0.01 0.01 0.01 0.01 0.01
0.07 0.07 0.09 0.15 0.12 0.05 0.01 0.00 0.00 0.00 0.00 0.00 0.00 0.00 0.00 0.00 0.00 0.00 0.00 0.00 0.00 0.00 0.00 0.00 0.00 0.00 0.00 0.00 0.00 0.00 0.00 0.00 0.00 0.00 0.00 0.00 0.01 0.00 0.00 0.00 0.00 0.00 0.00 0.00 0.01 0.01 0.01 0.01 0.01
0.08 0.10 0.13 0.15 0.10 0.05 0.02 0.00 0.00 0.00 0.00 0.00 0.00 0.00 0.00 0.00 0.00 0.00 0.00 0.00 0.00 0.00 0.00 0.00 0.00 0.00 0.00 0.00 0.00 0.00 0.00 0.00 0.00 0.00 0.00 0.00 0.00 0.00 0.00 0.00 0.00 0.00 0.00 0.00 0.00 0.00 0.01 0.01 0.01
0.05 0.07 0.10 0.13 0.10 0.04 0.02 0.01 0.00 0.00 0.00 0.00 0.00 0.00 0.00 0.00 0.00 0.00 0.00 0.00 0.00 0.00 0.00 0.00 0.00 0.00 0.00 0.00 0.00 0.00 0.00 0.00 0.00 0.00 0.00 0.00 0.00 0.00 0.00 0.00 0.00 0.00 0.00 0.00 0.00 0.00 0.00 0.00 0.01
MSLP
1012.83 1013.09 1013.43 1013.75 1013.97 1014.01 1013.87 1013.56 1013.14 1012.69 1012.30 1012.03 1011.89 1011.90 1012.00 1012.15 1012.29 1012.41 1012.51 1012.61 1012.77 1013.03 1013.42 1013.94 1014.55 1015.19 1015.80 1016.30 1016.68 1016.91 1017.04 1017.10 1017.16 1017.26 1017.43 1017.66 1017.92 1018.17 1018.37 1018.50 1018.53 1018.50 1018.44 1018.38 1018.35 1018.38 1018.45 1018.55 1018.64
1012.91 1013.21 1013.55 1013.85 1014.02 1014.00 1013.78 1013.38 1012.88 1012.36 1011.92 1011.61 1011.46 1011.46 1011.58 1011.75 1011.92 1012.07 1012.19 1012.33 1012.53 1012.83 1013.26 1013.82 1014.49 1015.19 1015.86 1016.42 1016.85 1017.13 1017.29 1017.38 1017.46 1017.57 1017.75 1017.99 1018.25 1018.51 1018.73 1018.86 1018.91 1018.90 1018.84 1018.80 1018.78 1018.81 1018.89 1018.98 1019.06
1013.07 1013.37 1013.69 1013.93 1014.03 1013.92 1013.61 1013.13 1012.56 1011.99 1011.51 1011.19 1011.05 1011.08 1011.23 1011.44 1011.65 1011.85 1012.01 1012.19 1012.42 1012.75 1013.21 1013.81 1014.51 1015.24 1015.95 1016.56 1017.03 1017.35 1017.55 1017.68 1017.78 1017.91 1018.09 1018.33 1018.59 1018.84 1019.05 1019.19 1019.24 1019.24 1019.21 1019.18 1019.17 1019.21 1019.29 1019.38 1019.45
1013.25 1013.52 1013.77 1013.93 1013.93 1013.72 1013.32 1012.78 1012.16 1011.57 1011.10 1010.80 1010.70 1010.78 1010.98 1011.25 1011.52 1011.77 1011.99 1012.20 1012.46 1012.81 1013.28 1013.88 1014.59 1015.33 1016.05 1016.68 1017.19 1017.55 1017.79 1017.95 1018.09 1018.24 1018.42 1018.65 1018.90 1019.14 1019.34 1019.47 1019.53 1019.54 1019.52 1019.51 1019.53 1019.58 1019.66 1019.74 1019.81
1013.39 1013.59 1013.75 1013.80 1013.69 1013.39 1012.92 1012.33 1011.70 1011.12 1010.69 1010.44 1010.41 1010.56 1010.84 1011.18 1011.52 1011.83 1012.09 1012.35 1012.62 1012.98 1013.44 1014.02 1014.70 1015.43 1016.14 1016.78 1017.30 1017.69 1017.98 1018.18 1018.35 1018.52 1018.72 1018.95 1019.19 1019.41 1019.59 1019.72 1019.79 1019.81 1019.81 1019.82 1019.85 1019.92 1020.00 1020.07 1020.12
1013.40 1013.52 1013.57 1013.51 1013.30 1012.92 1012.40 1011.80 1011.19 1010.66 1010.30 1010.13 1010.18 1010.41 1010.77 1011.19 1011.60 1011.97 1012.28 1012.56 1012.85 1013.20 1013.64 1014.18 1014.82 1015.50 1016.18 1016.81 1017.34 1017.76 1018.08 1018.33 1018.54 1018.74 1018.96 1019.19 1019.43 1019.64 1019.82 1019.94 1020.02 1020.06 1020.08 1020.11 1020.15 1020.22 1020.30 1020.36 1020.40
1013.27 1013.29 1013.24 1013.08 1012.78 1012.35 1011.82 1011.23 1010.67 1010.22 1009.94 1009.87 1010.01 1010.32 1010.75 1011.24 1011.70 1012.12 1012.46 1012.76 1013.06 1013.39 1013.80 1014.29 1014.88 1015.51 1016.15 1016.76 1017.29 1017.73 1018.09 1018.39 1018.64 1018.89 1019.13 1019.38 1019.63 1019.84 1020.02 1020.15 1020.24 1020.29 1020.33 1020.38 1020.43 1020.49 1020.56 1020.60 1020.61
1012.99 1012.93 1012.79 1012.55 1012.20 1011.75 1011.23 1010.69 1010.20 1009.84 1009.65 1009.66 1009.88 1010.25 1010.73 1011.25 1011.75 1012.19 1012.56 1012.88 1013.17 1013.49 1013.87 1014.32 1014.85 1015.44 1016.04 1016.63 1017.16 1017.62 1018.02 1018.36 1018.67 1018.96 1019.25 1019.52 1019.78 1020.01 1020.20 1020.34 1020.44 1020.51 1020.56 1020.61 1020.66 1020.72 1020.76 1020.77 1020.76
1012.61 1012.48 1012.27 1011.98 1011.61 1011.17 1010.70 1010.23 1009.82 1009.55 1009.43 1009.51 1009.76 1010.16 1010.65 1011.17 1011.68 1012.13 1012.51 1012.83 1013.13 1013.45 1013.81 1014.24 1014.74 1015.29 1015.86 1016.43 1016.96 1017.45 1017.88 1018.27 1018.63 1018.97 1019.29 1019.60 1019.88 1020.13 1020.34 1020.49 1020.60 1020.68 1020.75 1020.80 1020.84 1020.87 1020.89 1020.87 1020.83
1012.18 1011.99 1011.74 1011.44 1011.08 1010.68 1010.27 1009.88 1009.55 1009.34 1009.28 1009.37 1009.63 1010.01 1010.48 1010.97 1011.46 1011.89 1012.28 1012.61 1012.93 1013.26 1013.63 1014.05 1014.54 1015.08 1015.64 1016.19 1016.73 1017.23 1017.69 1018.12 1018.52 1018.91 1019.27 1019.61 1019.92 1020.19 1020.41 1020.58 1020.71 1020.80 1020.86 1020.91 1020.94 1020.96 1020.94 1020.90 1020.83
1011.72 1011.50 1011.24 1010.95 1010.63 1010.29 1009.95 1009.63 1009.37 1009.20 1009.15 1009.24 1009.46 1009.79 1010.19 1010.63 1011.07 1011.49 1011.87 1012.22 1012.57 1012.93 1013.34 1013.79 1014.29 1014.83 1015.39 1015.95 1016.49 1017.00 1017.49 1017.94 1018.37 1018.79 1019.19 1019.56 1019.89 1020.18 1020.41 1020.59 1020.73 1020.82 1020.88 1020.93 1020.95 1020.95 1020.93 1020.87 1020.78
1011.23 1011.00 1010.76 1010.50 1010.24 1009.96 1009.70 1009.44 1009.23 1009.08 1009.02 1009.06 1009.22 1009.47 1009.79 1010.16 1010.55 1010.95 1011.33 1011.71 1012.11 1012.52 1012.97 1013.47 1014.01 1014.57 1015.15 1015.72 1016.26 1016.78 1017.27 1017.74 1018.19 1018.62 1019.04 1019.42 1019.77 1020.07 1020.32 1020.51 1020.65 1020.75 1020.82 1020.86 1020.88 1020.88 1020.86 1020.80 1020.72
1010.71 1010.48 1010.26 1010.05 1009.85 1009.66 1009.45 1009.25 1009.06 1008.91 1008.82 1008.80 1008.88 1009.04 1009.28 1009.59 1009.94 1010.32 1010.72 1011.14 1011.59 1012.07 1012.59 1013.14 1013.73 1014.33 1014.92 1015.50 1016.05 1016.57 1017.06 1017.52 1017.97 1018.41 1018.83 1019.22 1019.58 1019.89 1020.14 1020.34 1020.49 1020.60 1020.67 1020.72 1020.76 1020.77 1020.76 1020.73 1020.68
1010.11 1009.88 1009.71 1009.56 1009.43 1009.30 1009.15 1008.99 1008.81 1008.64 1008.50 1008.42 1008.42 1008.52 1008.69 1008.95 1009.28 1009.66 1010.08 1010.55 1011.06 1011.61 1012.20 1012.82 1013.45 1014.09 1014.71 1015.30 1015.85 1016.36 1016.84 1017.30 1017.73 1018.16 1018.57 1018.96 1019.32 1019.64 1019.90 1020.11 1020.27 1020.39 1020.48 1020.54 1020.60 1020.64 1020.67 1020.68 1020.67
1009.40 1009.20 1009.08 1008.99 1008.93 1008.86 1008.76 1008.61 1008.42 1008.22 1008.04 1007.92 1007.86 1007.91 1008.05 1008.29 1008.61 1009.01 1009.47 1009.99 1010.55 1011.16 1011.81 1012.48 1013.16 1013.83 1014.48 1015.08 1015.64 1016.15 1016.62 1017.06 1017.48 1017.90 1018.30 1018.68 1019.04 1019.36 1019.63 1019.85 1020.02 1020.16 1020.27 1020.36 1020.45 1020.53 1020.60 1020.66 1020.71
1008.61 1008.45 1008.39 1008.37 1008.37 1008.35 1008.27 1008.12 1007.92 1007.68 1007.46 1007.29 1007.21 1007.23 1007.37 1007.62 1007.97 1008.40 1008.90 1009.46 1010.06 1010.71 1011.40 1012.11 1012.82 1013.52 1014.20 1014.82 1015.39 1015.91 1016.37 1016.81 1017.22 1017.62 1018.01 1018.39 1018.74 1019.07 1019.35 1019.59 1019.78 1019.94 1020.07 1020.20 1020.32 1020.44 1020.56 1020.67 1020.76
1007.77 1007.68 1007.69 1007.75 1007.80 1007.81 1007.73 1007.56 1007.32 1007.04 1006.78 1006.58 1006.48 1006.51 1006.67 1006.95 1007.34 1007.81 1008.35 1008.93 1009.56 1010.23 1010.93 1011.66 1012.40 1013.12 1013.82 1014.48 1015.07 1015.61 1016.09 1016.53 1016.94 1017.33 1017.72 1018.09 1018.45 1018.79 1019.09 1019.34 1019.56 1019.74 1019.91 1020.06 1020.22 1020.37 1020.53 1020.68 1020.82
1006.96 1006.96 1007.05 1007.19 1007.29 1007.31 1007.21 1006.99 1006.69 1006.35 1006.04 1005.81 1005.71 1005.75 1005.95 1006.28 1006.71 1007.22 1007.78 1008.37 1009.00 1009.67 1010.36 1011.09 1011.84 1012.59 1013.32 1014.02 1014.66 1015.23 1015.74 1016.20 1016.63 1017.03 1017.41 1017.79 1018.16 1018.51 1018.83 1019.11 1019.35 1019.57 1019.76 1019.94 1020.13 1020.31 1020.50 1020.68 1020.84
1006.22 1006.34 1006.55 1006.76 1006.89 1006.90 1006.76 1006.47 1006.08 1005.65 1005.28 1005.01 1004.90 1004.96 1005.19 1005.56 1006.03 1006.57 1007.14 1007.73 1008.34 1008.98 1009.66 1010.38 1011.13 1011.91 1012.69 1013.43 1014.13 1014.76 1015.32 1015.82 1016.26 1016.68 1017.08 1017.46 1017.84 1018.20 1018.55 1018.86 1019.14 1019.38 1019.61 1019.82 1020.02 1020.23 1020.43 1020.63 1020.80
1005.61 1005.87 1006.19 1006.47 1006.63 1006.61 1006.39 1006.00 1005.50 1004.97 1004.51 1004.19 1004.05 1004.12 1004.37 1004.77 1005.28 1005.83 1006.40 1006.97 1007.56 1008.16 1008.81 1009.52 1010.28 1011.09 1011.91 1012.72 1013.49 1014.18 1014.80 1015.35 1015.83 1016.26 1016.67 1017.07 1017.46 1017.84 1018.21 1018.56 1018.87 1019.16 1019.41 1019.65 1019.87 1020.09 1020.30 1020.50 1020.68
1005.09 1005.50 1005.93 1006.28 1006.45 1006.39 1006.08 1005.58 1004.94 1004.29 1003.73 1003.33 1003.16 1003.21 1003.48 1003.90 1004.41 1004.97 1005.53 1006.08 1006.63 1007.21 1007.83 1008.52 1009.30 1010.14 1011.02 1011.90 1012.74 1013.51 1014.19 1014.78 1015.29 1015.75 1016.17 1016.58 1016.99 1017.39 1017.79 1018.17 1018.52 1018.85 1019.14 1019.41 1019.65 1019.88 1020.10 1020.31 1020.48
1004.60 1005.15 1005.68 1006.09 1006.26 1006.14 1005.75 1005.12 1004.35 1003.57 1002.90 1002.43 1002.20 1002.24 1002.49 1002.92 1003.44 1004.00 1004.55 1005.08 1005.61 1006.16 1006.76 1007.46 1008.25 1009.13 1010.06 1011.00 1011.91 1012.74 1013.47 1014.10 1014.64 1015.11 1015.55 1015.97 1016.39 1016.82 1017.25 1017.67 1018.07 1018.44 1018.77 1019.07 1019.34 1019.59 1019.82 1020.04 1020.22
1004.05 1004.72 1005.33 1005.76 1005.92 1005.76 1005.27 1004.53 1003.65 1002.76 1002.00 1001.45 1001.18 1001.19 1001.44 1001.86 1002.39 1002.95 1003.49 1004.02 1004.53 1005.07 1005.68 1006.38 1007.20 1008.11 1009.08 1010.07 1011.02 1011.90 1012.67 1013.32 1013.88 1014.36 1014.81 1015.24 1015.68 1016.13 1016.60 1017.07 1017.51 1017.93 1018.31 1018.65 1018.95 1019.23 1019.48 1019.71 1019.91
1003.38 1004.11 1004.76 1005.20 1005.34 1005.12 1004.57 1003.75 1002.79 1001.83 1001.00 1000.41 1000.11 1000.10 1000.35 1000.77 1001.31 1001.87 1002.42 1002.95 1003.47 1004.02 1004.64 1005.36 1006.19 1007.13 1008.13 1009.15 1010.13 1011.03 1011.81 1012.48 1013.04 1013.52 1013.97 1014.41 1014.87 1015.36 1015.87 1016.38 1016.88 1017.35 1017.77 1018.16 1018.49 1018.80 1019.08 1019.33 1019.56
1002.56 1003.29 1003.94 1004.36 1004.47 1004.21 1003.61 1002.76 1001.76 1000.77 999.93 999.33 999.02 999.02 999.27 999.70 1000.25 1000.83 1001.40 1001.94 1002.48 1003.06 1003.70 1004.44 1005.30 1006.25 1007.27 1008.29 1009.27 1010.16 1010.94 1011.60 1012.15 1012.63 1013.08 1013.54 1014.03 1014.55 1015.10 1015.66 1016.21 1016.72 1017.19 1017.61 1017.98 1018.32 1018.63 1018.92 1019.19
1001.65 1002.31 1002.89 1003.26 1003.32 1003.04 1002.42 1001.57 1000.59 999.63 998.82 998.25 997.97 997.99 998.26 998.72 999.28 999.87 1000.47 1001.04 1001.62 1002.23 1002.90 1003.67 1004.54 1005.50 1006.51 1007.52 1008.48 1009.35 1010.10 1010.73 1011.27 1011.75 1012.21 1012.69 1013.20 1013.76 1014.35 1014.95 1015.54 1016.09 1016.60 1017.04 1017.44 1017.81 1018.15 1018.48 1018.80
1000.74 1001.27 1001.73 1002.00 1002.00 1001.69 1001.09 1000.28 999.36 998.48 997.74 997.24 997.03 997.09 997.39 997.86 998.44 999.06 999.68 1000.28 1000.90 1001.54 1002.25 1003.04 1003.93 1004.89 1005.88 1006.86 1007.78 1008.61 1009.32 1009.93 1010.45 1010.93 1011.40 1011.90 1012.44 1013.04 1013.66 1014.30 1014.92 1015.50 1016.02 1016.49 1016.91 1017.29 1017.66 1018.02 1018.39
999.95 1000.29 1000.58 1000.72 1000.64 1000.30 999.72 998.97 998.16 997.39 996.76 996.37 996.23 996.34 996.67 997.16 997.75 998.39 999.03 999.66 1000.31 1001.00 1001.74 1002.56 1003.45 1004.40 1005.37 1006.32 1007.19 1007.97 1008.65 1009.23 1009.74 1010.22 1010.70 1011.22 1011.80 1012.42 1013.08 1013.74 1014.38 1014.97 1015.49 1015.96 1016.38 1016.77 1017.16 1017.55 1017.96
999.40 999.49 999.58 999.55 999.36 998.98 998.43 997.76 997.06 996.42 995.93 995.65 995.60 995.77 996.13 996.64 997.23 997.86 998.51 999.17 999.84 1000.56 1001.33 1002.17 1003.08 1004.02 1004.97 1005.88 1006.72 1007.46 1008.10 1008.66 1009.16 1009.64 1010.14 1010.68 1011.28 1011.92 1012.60 1013.27 1013.91 1014.50 1015.02 1015.48 1015.89 1016.28 1016.66 1017.07 1017.51
999.09 998.92 998.77 998.56 998.24 997.81 997.27 996.68 996.10 995.61 995.25 995.09 995.12 995.35 995.74 996.24 996.82 997.44 998.09 998.75 999.44 1000.19 1000.99 1001.85 1002.76 1003.71 1004.64 1005.52 1006.33 1007.05 1007.67 1008.21 1008.70 1009.19 1009.70 1010.26 1010.87 1011.53 1012.21 1012.88 1013.52 1014.10 1014.60 1015.05 1015.44 1015.82 1016.21 1016.62 1017.08
Thickness
5727 5729 5732 5729 5722 5719 5725 5738 5745 5746 5750 5759 5761 5760 5761 5760 5756 5752 5758 5765 5763 5757 5751 5745 5742 5739 5737 5735 5733 5730 5729 5727 5726 5725 5723 5722 5720 5719 5718 5716 5715 5714 5712 5711 5709 5708 5706 5704 5703
5726 5727 5726 5723 5715 5713 5725 5739 5741 5748 5754 5755 5755 5757 5758 5761 5764 5759 5757 5759 5758 5754 5749 5745 5740 5737 5735 5732 5730 5728 5726 5724 5723 5722 5720 5718 5717 5715 5714 5712 5710 5709 5707 5705 5704 5702 5700 5699 5697
5722 5723 5720 5716 5714 5721 5730 5741 5746 5749 5752 5752 5752 5757 5759 5759 5761 5760 5759 5756 5754 5750 5746 5742 5737 5735 5732 5730 5727 5725 5723 5721 5720 5718 5717 5715 5713 5711 5709 5707 5705 5703 5702 5700 5698 5696 5695 5693 5691
5718 5715 5715 5712 5715 5728 5735 5742 5744 5743 5745 5749 5753 5751 5756 5756 5760 5760 5756 5753 5751 5747 5744 5739 5735 5732 5730 5727 5725 5722 5720 5719 5717 5715 5713 5711 5709 5707 5704 5702 5700 5698 5696 5695 5693 5691 5689 5687 5685
5712 5710 5704 5706 5717 5730 5737 5740 5741 5741 5744 5748 5750 5750 5751 5751 5754 5754 5751 5750 5748 5745 5741 5736 5732 5729 5727 5724 5722 5720 5717 5715 5713 5711 5709 5707 5705 5702 5700 5697 5695 5693 5692 5690 5688 5686 5684 5682 5680
5701 5704 5701 5706 5718 5727 5734 5738 5738 5740 5744 5746 5747 5748 5749 5748 5748 5748 5747 5746 5744 5741 5738 5734 5729 5726 5724 5722 5719 5717 5715 5712 5710 5708 5706 5703 5701 5698 5695 5693 5691 5689 5687 5685 5683 5680 5678 5676 5674
5695 5695 5701 5710 5715 5721 5730 5736 5736 5740 5741 5746 5751 5747 5747 5745 5745 5744 5743 5742 5740 5737 5734 5731 5727 5723 5721 5719 5716 5714 5711 5709 5706 5704 5702 5699 5696 5694 5691 5689 5686 5684 5682 5680 5677 5675 5673 5670 5668
5695 5694 5697 5706 5710 5718 5731 5732 5737 5739 5743 5749 5750 5745 5745 5746 5741 5740 5738 5736 5735 5733 5732 5730 5726 5723 5720 5717 5713 5711 5708 5706 5703 5700 5697 5695 5692 5689 5687 5684 5681 5679 5677 5674 5672 5669 5667 5664 5662
5686 5683 5693 5705 5709 5718 5726 5726 5731 5738 5740 5740 5744 5747 5746 5742 5737 5734 5731 5729 5729 5729 5729 5728 5726 5723 5719 5716 5712 5708 5705 5702 5699 5696 5693 5691 5689 5687 5683 5680 5677 5674 5671 5669 5666 5664 5661 5659 5656
5676 5680 5698 5710 5715 5718 5720 5723 5727 5728 5730 5733 5735 5734 5734 5733 5733 5731 5730 5728 5728 5727 5727 5726 5724 5721 5718 5714 5710 5707 5704 5700 5698 5695 5691 5688 5687 5684 5680 5675 5672 5669 5666 5663 5661 5658 5656 5655 5654
5675 5684 5698 5704 5709 5712 5714 5718 5724 5725 5726 5737 5739 5735 5729 5729 5730 5732 5732 5732 5731 5729 5726 5725 5723 5720 5716 5713 5709 5706 5703 5699 5696 5693 5689 5686 5683 5679 5676 5672 5668 5665 5662 5660 5656 5654 5653 5651 5648
5670 5683 5692 5698 5701 5703 5708 5714 5717 5723 5733 5742 5744 5739 5729 5728 5731 5733 5734 5733 5730 5727 5725 5723 5720 5718 5715 5712 5708 5705 5701 5698 5695 5691 5687 5684 5680 5677 5673 5670 5666 5663 5659 5656 5654 5651 5648 5645 5643
5662 5675 5682 5689 5693 5698 5701 5706 5713 5719 5730 5733 5735 5730 5730 5732 5734 5735 5735 5732 5729 5726 5724 5722 5719 5716 5713 5709 5706 5703 5700 5696 5693 5688 5685 5681 5678 5674 5671 5667 5662 5659 5656 5652 5649 5647 5644 5641 5638
5659 5666 5673 5680 5685 5690 5692 5700 5704 5717 5725 5725 5725 5727 5730 5732 5733 5732 5731 5730 5729 5727 5724 5722 5718 5715 5711 5708 5705 5702 5698 5694 5691 5686 5682 5679 5675 5672 5667 5663 5659 5656 5652 5649 5645 5642 5639 5636 5633
5649 5651 5660 5671 5678 5684 5684 5688 5702 5717 5719 5720 5723 5726 5727 5730 5731 5732 5733 5732 5731 5728 5725 5721 5718 5714 5710 5707 5703 5700 5696 5693 5689 5685 5680 5676 5672 5668 5663 5660 5656 5652 5648 5644 5641 5638 5634 5631 5628
5633 5636 5645 5667 5673 5677 5672 5684 5707 5715 5713 5716 5722 5726 5725 5728 5731 5733 5733 5732 5730 5727 5724 5721 5717 5713 5710 5706 5702 5698 5695 5691 5687 5683 5678 5674 5669 5665 5660 5657 5653 5648 5644 5640 5637 5633 5630 5627 5623
5618 5630 5645 5659 5669 5671 5671 5684 5704 5710 5709 5714 5720 5724 5725 5727 5729 5732 5733 5731 5730 5727 5724 5720 5716 5713 5709 5705 5700 5696 5692 5689 5685 5680 5676 5672 5667 5662 5657 5654 5649 5644 5640 5636 5632 5629 5626 5622 5618
5621 5633 5643 5652 5664 5664 5667 5682 5696 5702 5703 5711 5718 5722 5724 5726 5730 5733 5732 5731 5729 5726 5723 5719 5716 5712 5708 5702 5698 5693 5690 5686 5683 5679 5675 5670 5665 5660 5655 5650 5646 5641 5637 5632 5628 5624 5620 5616 5612
5624 5630 5636 5648 5657 5655 5662 5674 5687 5697 5698 5704 5713 5719 5723 5727 5733 5733 5732 5730 5727 5724 5722 5719 5716 5712 5707 5702 5697 5693 5689 5685 5681 5678 5673 5668 5663 5658 5653 5648 5643 5638 5634 5630 5626 5621 5616 5611 5607
5606 5613 5624 5634 5642 5645 5655 5666 5682 5691 5696 5703 5710 5717 5722 5726 5729 5730 5729 5727 5726 5725 5722 5720 5717 5713 5709 5705 5700 5695 5690 5685 5681 5675 5671 5666 5661 5656 5651 5646 5641 5636 5631 5627 5622 5617 5612 5607 5602
5594 5605 5616 5621 5627 5633 5640 5653 5672 5687 5693 5699 5707 5715 5721 5725 5728 5729 5727 5726 5725 5724 5723 5720 5718 5713 5709 5704 5698 5691 5686 5681 5677 5673 5669 5665 5660 5654 5649 5644 5639 5634 5629 5624 5619 5614 5608 5604 5598
5589 5604 5608 5609 5611 5620 5627 5639 5671 5682 5686 5694 5704 5712 5719 5724 5727 5728 5728 5727 5725 5725 5723 5720 5717 5713 5708 5703 5698 5693 5689 5685 5682 5676 5670 5664 5658 5653 5648 5642 5637 5632 5627 5622 5616 5611 5606 5600 5595
5591 5597 5598 5599 5601 5607 5617 5624 5660 5674 5679 5694 5705 5713 5719 5723 5725 5726 5727 5727 5726 5724 5721 5718 5715 5711 5707 5702 5698 5693 5689 5686 5682 5675 5669 5663 5657 5652 5646 5641 5635 5630 5624 5619 5614 5608 5603 5598 5594
5581 5579 5578 5582 5583 5586 5614 5616 5645 5671 5685 5697 5706 5712 5717 5720 5721 5723 5724 5724 5723 5720 5717 5715 5712 5709 5705 5701 5697 5693 5689 5685 5680 5674 5668 5662 5656 5650 5645 5639 5634 5628 5623 5617 5612 5606 5600 5595 5590
5566 5562 5559 5563 5569 5590 5618 5614 5642 5678 5689 5696 5702 5708 5713 5716 5717 5718 5719 5719 5718 5717 5714 5712 5710 5707 5704 5699 5695 5692 5688 5683 5679 5674 5668 5662 5656 5650 5645 5638 5633 5627 5621 5615 5609 5603 5598 5592 5587
5560 5565 5568 5576 5587 5603 5605 5614 5651 5674 5684 5690 5696 5701 5705 5708 5712 5713 5716 5716 5716 5714 5712 5710 5708 5706 5702 5698 5694 5690 5685 5680 5676 5672 5667 5662 5657 5651 5645 5637 5631 5625 5619 5612 5606 5600 5594 5589 5583
5553 5560 5577 5580 5589 5598 5602 5624 5645 5660 5671 5678 5686 5691 5696 5702 5705 5708 5710 5711 5712 5710 5709 5708 5706 5703 5699 5696 5691 5687 5682 5678 5674 5669 5664 5660 5655 5649 5642 5635 5629 5623 5616 5609 5603 5597 5591 5585 5579
5557 5561 5558 5559 5571 5587 5607 5621 5641 5656 5667 5677 5683 5689 5696 5698 5700 5702 5705 5706 5706 5706 5704 5703 5702 5700 5697 5692 5688 5684 5680 5675 5670 5665 5661 5656 5651 5645 5639 5632 5626 5620 5613 5606 5599 5594 5588 5581 5575
5543 5545 5550 5558 5575 5592 5604 5627 5653 5662 5671 5677 5684 5689 5692 5693 5695 5696 5697 5699 5698 5697 5696 5695 5695 5693 5690 5687 5684 5679 5675 5671 5666 5662 5657 5652 5647 5641 5635 5629 5622 5616 5610 5603 5596 5590 5583 5577 5571
5542 5546 5548 5554 5566 5586 5604 5628 5648 5658 5666 5670 5676 5678 5682 5684 5687 5688 5689 5688 5688 5688 5688 5688 5688 5687 5685 5682 5679 5675 5671 5666 5662 5658 5653 5648 5642 5636 5630 5624 5618 5611 5605 5599 5593 5586 5579 5573 5567